VE4GLS Weather Reports


time (UTC)temp
C
wind
direction
speed
KPH
gust
KPH
rain 1hr
cm
rain 24hr
cm
rain mn
cm
humidity
%
barometer
mb
20260502205314 19 253 3.2 3.2 0.00 0.00 0.00 42 1004.4
20260502204736 19 144 0.0 3.2 0.00 0.00 0.00 43 1004.5
20260502204313 18 162 8.0 12.9 0.00 0.00 0.00 44 1004.6
20260502203313 18 138 3.2 3.2 0.00 0.00 0.00 47 1004.6
20260502203235 18 216 8.0 9.7 0.00 0.00 0.00 47 1004.7
20260502202313 17 138 12.9 16.1 0.00 0.00 0.00 49 1004.7
20260502201735 17 115 8.0 16.1 0.00 0.00 0.00 51 1004.8
20260502201313 16 112 9.7 14.5 0.00 0.00 0.00 50 1004.8
20260502200314 16 105 16.1 14.5 0.00 0.00 0.00 50 1005.0
20260502200236 16 100 16.1 19.3 0.00 0.00 0.00 51 1005.0
20260502195313 16 121 12.9 14.5 0.00 0.00 0.00 54 1005.1
20260502194735 15 124 12.9 16.1 0.00 0.00 0.00 54 1005.2
20260502194313 15 120 12.9 14.5 0.00 0.00 0.00 54 1005.3
20260502193313 15 127 9.7 12.9 0.00 0.00 0.00 58 1005.4
20260502193235 15 127 8.0 12.9 0.00 0.00 0.00 56 1005.4
20260502192313 14 98 11.3 12.9 0.00 0.00 0.00 55 1005.5
20260502191735 15 90 12.9 12.9 0.00 0.00 0.00 53 1005.5
20260502191315 15 72 12.9 16.1 0.00 0.00 0.00 50 1005.7
20260502190314 15 80 11.3 14.5 0.00 0.00 0.00 47 1005.7
20260502190234 15 81 12.9 16.1 0.00 0.00 0.00 46 1005.7
20260502185313 15 100 20.9 19.3 0.00 0.00 0.00 47 1005.6
20260502184734 15 96 24.1 25.7 0.00 0.00 0.00 46 1005.6
20260502184314 15 90 20.9 24.1 0.00 0.00 0.00 47 1005.5
20260502183314 14 91 24.1 24.1 0.00 0.00 0.00 48 1005.4
20260502183234 14 91 24.1 25.7 0.00 0.00 0.00 48 1005.5
20260502182315 14 77 11.3 11.3 0.00 0.00 0.00 50 1005.8
20260502181734 14 109 14.5 16.1 0.00 0.00 0.00 50 1005.8
20260502181314 14 104 12.9 19.3 0.00 0.00 0.00 51 1005.9
20260502180314 14 152 4.8 9.7 0.00 0.00 0.00 51 1006.0
20260502180234 14 147 8.0 9.7 0.00 0.00 0.00 50 1005.9
20260502170313 13 222 8.0 19.3 0.00 0.00 0.00 49 1006.1
20260502170235 13 216 9.7 8.0 0.00 0.00 0.00 48 1006.0
20260502164314 13 130 3.2 1.6 0.00 0.00 0.00 50 1005.7
20260502163315 13 175 11.3 16.1 0.00 0.00 0.00 51 1005.7
20260502163236 13 182 12.9 19.3 0.00 0.00 0.00 50 1005.7
20260502162315 13 197 12.9 14.5 0.00 0.00 0.00 51 1005.9
20260502161734 13 195 12.9 16.1 0.00 0.00 0.00 49 1005.9
20260502161314 13 194 11.3 16.1 0.00 0.00 0.00 51 1006.0
20260502160314 13 192 14.5 16.1 0.00 0.00 0.00 49 1006.0
20260502160234 13 201 14.5 19.3 0.00 0.00 0.00 49 1006.0
20260502152314 12 199 14.5 19.3 0.00 0.00 0.00 49 1006.2
20260502151735 12 205 11.3 20.9 0.00 0.00 0.00 49 1006.2
20260502151313 12 210 14.5 12.9 0.00 0.00 0.00 48 1006.2
20260502150313 12 202 12.9 16.1 0.00 0.00 0.00 50 1006.1
20260502150235 12 212 11.3 16.1 0.00 0.00 0.00 50 1006.2
20260502130313 5 157 12.9 12.9 0.00 0.00 0.00 60 1007.4
20260502130235 5 166 12.9 22.5 0.00 0.00 0.00 60 1007.4
20260502123314 4 152 16.1 24.1 0.00 0.00 0.00 62 1007.7
20260502123234 4 149 16.1 24.1 0.00 0.00 0.00 62 1007.8
20260502122314 3 150 11.3 19.3 0.00 0.00 0.00 63 1008.0
20260502121734 3 149 12.9 20.9 0.00 0.00 0.00 64 1008.1
20260502121314 3 151 12.9 16.1 0.00 0.00 0.00 64 1008.1
20260502120314 2 156 11.3 19.3 0.00 0.00 0.00 65 1008.4
20260502120234 2 161 11.3 24.1 0.00 0.00 0.00 65 1008.3
20260502115314 2 159 14.5 25.7 0.00 0.00 0.00 65 1008.4
20260502114736 2 163 11.3 22.5 0.00 0.00 0.00 64 1008.4
20260502114314 2 153 11.3 12.9 0.00 0.00 0.00 64 1008.5
20260502113314 2 153 12.9 24.1 0.00 0.00 0.00 63 1008.6
20260502113235 2 156 12.9 19.3 0.00 0.00 0.00 63 1008.6
20260502112313 2 148 12.9 20.9 0.00 0.00 0.00 63 1008.7
20260502111735 2 145 12.9 20.9 0.00 0.00 0.00 63 1008.8
20260502111313 2 147 11.3 16.1 0.00 0.00 0.00 62 1008.9
20260502110313 2 148 11.3 16.1 0.00 0.00 0.00 62 1009.0
20260502110235 2 146 12.9 14.5 0.00 0.00 0.00 62 1009.1
20260502105315 2 150 11.3 19.3 0.00 0.00 0.00 61 1009.2
20260502104734 2 145 12.9 14.5 0.00 0.00 0.00 61 1009.3
20260502104314 2 151 11.3 14.5 0.00 0.00 0.00 60 1009.3
20260502103313 2 144 11.3 16.1 0.00 0.00 0.00 60 1009.4
20260502103235 2 148 11.3 16.1 0.00 0.00 0.00 60 1009.5
20260502102313 2 157 12.9 20.9 0.00 0.00 0.00 60 1009.6
20260502101735 2 154 11.3 20.9 0.00 0.00 0.00 59 1009.7
20260502101313 2 157 9.7 11.3 0.00 0.00 0.00 59 1009.8
20260502100315 2 147 14.5 22.5 0.00 0.00 0.00 59 1009.8
20260502100235 2 150 11.3 19.3 0.00 0.00 0.00 59 1009.9
20260502091314 2 143 14.5 19.3 0.00 0.00 0.00 57 1010.5
20260502090314 3 142 14.5 14.5 0.00 0.00 0.00 56 1010.6
20260502090234 3 142 14.5 20.9 0.00 0.00 0.00 56 1010.7
20260502071314 3 150 11.3 12.9 0.00 0.00 0.00 52 1012.5
20260502070314 3 149 9.7 12.9 0.00 0.00 0.00 53 1012.6
20260502070234 3 147 9.7 16.1 0.00 0.00 0.00 52 1012.7
20260502065314 3 150 11.3 16.1 0.00 0.00 0.00 52 1012.8
20260502064736 3 151 11.3 22.5 0.00 0.00 0.00 51 1012.9
20260502064314 3 148 8.0 14.5 0.00 0.00 0.00 51 1012.9
20260502063313 4 154 11.3 16.1 0.00 0.00 0.00 51 1012.9
20260502063235 4 151 9.7 14.5 0.00 0.00 0.00 51 1013.0
20260502062313 4 151 9.7 16.1 0.00 0.00 0.00 52 1013.1
20260502061735 4 153 9.7 12.9 0.00 0.00 0.00 51 1013.2
20260502061313 4 160 11.3 14.5 0.00 0.00 0.00 51 1013.2
20260502060313 3 156 11.3 12.9 0.00 0.00 0.00 52 1013.3
20260502060235 3 156 11.3 11.3 0.00 0.00 0.00 53 1013.3
20260502055314 3 151 11.3 14.5 0.00 0.00 0.00 54 1013.3
20260502054735 2 148 8.0 12.9 0.00 0.00 0.00 55 1013.4
20260502054314 2 152 8.0 16.1 0.00 0.00 0.00 55 1013.5
20260502053314 2 144 4.8 8.0 0.00 0.00 0.00 56 1013.6
20260502053234 2 150 8.0 9.7 0.00 0.00 0.00 56 1013.6
20260502052314 2 140 9.7 12.9 0.00 0.00 0.00 55 1013.6
20260502051736 2 140 9.7 9.7 0.00 0.00 0.00 55 1013.7
20260502051314 2 135 8.0 9.7 0.00 0.00 0.00 54 1013.8
20260502050313 2 138 9.7 8.0 0.00 0.00 0.00 54 1013.9
20260502050235 2 135 9.7 9.7 0.00 0.00 0.00 55 1013.9
20260502045313 3 134 9.7 9.7 0.00 0.00 0.00 52 1013.9
20260502044735 3 131 9.7 9.7 0.00 0.00 0.00 51 1014.0
20260502044313 3 133 9.7 9.7 0.00 0.00 0.00 51 1014.0
20260502043313 4 146 4.8 9.7 0.00 0.00 0.00 52 1014.0
20260502043235 4 153 4.8 9.7 0.00 0.00 0.00 51 1014.1
20260502042313 4 125 11.3 12.9 0.00 0.00 0.00 50 1014.1
20260502041735 5 127 8.0 9.7 0.00 0.00 0.00 50 1014.1
20260502041315 5 138 8.0 9.7 0.00 0.00 0.00 50 1014.1
20260502040314 5 144 4.8 4.8 0.00 0.00 0.00 51 1014.1
20260502040234 5 147 4.8 8.0 0.00 0.00 0.00 50 1014.2
20260502035314 5 144 3.2 3.2 0.00 0.00 0.00 48 1014.2
20260502034734 5 137 4.8 4.8 0.00 0.00 0.00 47 1014.2
20260502034314 5 134 8.0 8.0 0.00 0.00 0.00 48 1014.2
20260502033314 6 132 9.7 12.9 0.00 0.00 0.00 47 1014.2
20260502033236 6 120 8.0 9.7 0.00 0.00 0.00 47 1014.3
20260502032313 6 140 9.7 12.9 0.00 0.00 0.00 47 1014.2
20260502031735 6 156 4.8 8.0 0.00 0.00 0.00 46 1014.2
20260502031313 6 150 4.8 11.3 0.00 0.00 0.00 47 1014.2
20260502030313 7 144 4.8 8.0 0.00 0.00 0.00 46 1014.2
20260502030235 7 148 4.8 8.0 0.00 0.00 0.00 46 1014.2
20260502025313 7 145 3.2 8.0 0.00 0.00 0.00 45 1014.3
20260502024735 7 161 4.8 11.3 0.00 0.00 0.00 45 1014.3
20260502024314 7 144 4.8 12.9 0.00 0.00 0.00 44 1014.2
20260502023314 8 155 4.8 4.8 0.00 0.00 0.00 44 1014.2
20260502023235 8 155 3.2 4.8 0.00 0.00 0.00 44 1014.2
20260502022313 8 141 3.2 3.2 0.00 0.00 0.00 41 1014.1
20260502021735 9 129 8.0 9.7 0.00 0.00 0.00 40 1014.2
20260502021313 10 116 9.7 8.0 0.00 0.00 0.00 40 1014.1
20260502020313 10 161 4.8 11.3 0.00 0.00 0.00 40 1014.1
20260502020235 10 153 4.8 4.8 0.00 0.00 0.00 40 1014.1
20260502015315 10 160 4.8 12.9 0.00 0.00 0.00 40 1014.2
20260502014736 10 141 8.0 9.7 0.00 0.00 0.00 40 1014.2
20260502014313 11 143 4.8 9.7 0.00 0.00 0.00 39 1014.2
20260502013313 11 119 1.6 4.8 0.00 0.00 0.00 40 1014.3
20260502013235 11 119 1.6 1.6 0.00 0.00 0.00 40 1014.3
20260502012313 12 115 4.8 4.8 0.00 0.00 0.00 37 1014.3
20260502011735 12 119 4.8 8.0 0.00 0.00 0.00 37 1014.4
20260502011313 12 104 4.8 8.0 0.00 0.00 0.00 37 1014.4
20260502010315 12 78 3.2 3.2 0.00 0.00 0.00 37 1014.5
20260502010235 12 78 1.6 3.2 0.00 0.00 0.00 37 1014.5
20260502005314 12 57 3.2 3.2 0.00 0.00 0.00 36 1014.5
20260502004734 12 91 3.2 3.2 0.00 0.00 0.00 36 1014.6
20260502004314 12 91 3.2 4.8 0.00 0.00 0.00 36 1014.7
20260502003314 13 91 3.2 3.2 0.00 0.00 0.00 36 1014.7
20260502003234 13 91 4.8 4.8 0.00 0.00 0.00 35 1014.7
20260502002315 13 92 4.8 4.8 0.00 0.00 0.00 35 1014.9
20260502001734 13 108 4.8 8.0 0.00 0.00 0.00 35 1014.9
20260502001314 13 96 1.6 4.8 0.00 0.00 0.00 35 1014.9
20260502000313 13 114 4.8 4.8 0.00 0.00 0.00 33 1015.0
20260502000235 13 120 4.8 4.8 0.00 0.00 0.00 33 1015.0
20260501235313 14 177 3.2 4.8 0.00 0.00 0.00 34 1015.1
20260501234736 14 208 4.8 4.8 0.00 0.00 0.00 34 1015.1
20260501234314 14 264 8.0 8.0 0.00 0.00 0.00 33 1015.2
20260501233313 15 303 8.0 4.8 0.00 0.00 0.00 33 1015.1
20260501233235 15 300 11.3 14.5 0.00 0.00 0.00 33 1015.2
20260501232313 15 1 11.3 19.3 0.00 0.00 0.00 33 1015.2
20260501231735 15 277 4.8 9.7 0.00 0.00 0.00 33 1015.4
20260501231313 14 13 3.2 4.8 0.00 0.00 0.00 33 1015.4
20260501230314 14 250 1.6 3.2 0.00 0.00 0.00 32 1015.5
20260501230236 14 255 8.0 8.0 0.00 0.00 0.00 32 1015.5
20260501225314 14 241 12.9 12.9 0.00 0.00 0.00 33 1015.6
20260501224734 15 256 8.0 11.3 0.00 0.00 0.00 31 1015.6
20260501224313 15 307 3.2 8.0 0.00 0.00 0.00 32 1015.6
20260501223313 15 276 4.8 3.2 0.00 0.00 0.00 32 1015.6
20260501223235 15 258 11.3 14.5 0.00 0.00 0.00 32 1015.6
20260501222315 14 318 3.2 4.8 0.00 0.00 0.00 33 1015.7
20260501221734 14 34 3.2 4.8 0.00 0.00 0.00 32 1015.9
20260501221314 14 9 4.8 8.0 0.00 0.00 0.00 32 1015.9
20260501220314 14 346 11.3 19.3 0.00 0.00 0.00 32 1015.9
20260501220234 14 326 3.2 16.1 0.00 0.00 0.00 32 1015.9
20260501215313 14 319 14.5 19.3 0.00 0.00 0.00 33 1016.1
20260501214735 13 308 11.3 20.9 0.00 0.00 0.00 34 1016.1
20260501214314 13 204 0.0 1.6 0.00 0.00 0.00 32 1016.1
20260501213314 13 50 11.3 16.1 0.00 0.00 0.00 34 1016.2
20260501213236 13 34 4.8 14.5 0.00 0.00 0.00 34 1016.2
20260501212313 14 235 9.7 19.3 0.00 0.00 0.00 33 1016.3
20260501211734 14 263 11.3 12.9 0.00 0.00 0.00 32 1016.5
20260501211313 14 262 12.9 19.3 0.00 0.00 0.00 32 1016.4
20260501210314 13 161 3.2 4.8 0.00 0.00 0.00 33 1016.6
20260501210234 13 170 3.2 4.8 0.00 0.00 0.00 33 1016.6